Location: Łódź
(51.7951°N, 19.4477°E)
Time: 11:25:34
(UTC+01:00)

ISS - Pass Details

Date: 26 January 2019
Orbit: 403 x 411 km, 51.6° (Epoch: 23 February)

Event Time Altitude Azimuth Distance (km) Brightness Sun altitude
Rises 19:11:27 0° 254° (WSW) 2,335 1.2 -26.3°
Reaches altitude 10° 19:13:32 10° 253° (WSW) 1,477 -0.1 -26.7°
Enters shadow 19:14:49 22° 250° (WSW) 965 -1.3 -26.9°
